User: anonymous   Login
Location: Warszawa
(52.2500°N, 21.0000°E)
Time: 00:02:07
(UTC+02:00)
Language:

MOZHAYETS 4 - Orbit

View from above orbital plane
View from above orbital plane
View from above satellite
View from above satellite

Ground track
Ground track

The orbit data is extracted from the following two-line orbital elements,

1 27939U 03042A   24115.57177181  .00004072  00000-0  69169-3 0  9996
2 27939  98.2841 270.9527 0011353 225.4131 207.2930 14.69688057100409
Epoch (UTC): 24 April 2024 13:43:21
Eccentricity: 0.0011353
inclination: 98.2841°
perigee height: 654 km
apogee height: 670 km
right ascension of ascending node: 270.9527°
argument of perigee: 225.4131°
revolutions per day: 14.69688057
mean anomaly at epoch: 207.2930°
orbit number at epoch: 10040

The dashed part of the orbit path shows where the satellite is in the earth's shadow,  

DLR